Location: Mentone
(34.5413°N, 85.5351°W)
Time: 20:39:11
(UTC-05:00)

Cosmos 2026 Rocket - Visible Passes

Search period start: 22 October 2014 00:00
Search period end: 01 November 2014 00:00
Orbit: 941 x 1001 km, 82.9° (Epoch: 21 October)

Date Brightness Start Highest point End Pass type
(mag) Time Alt. Az. Time Alt. Az. Time Alt. Az.
22 Oct 5.9 05:39:34 10° NNE 05:45:08 31° ENE 05:50:35 10° SE visible
22 Oct 4.0 19:03:34 10° S 19:09:50 83° E 19:16:12 10° N visible
22 Oct 6.9 20:53:26 10° W 20:55:51 12° WNW 20:58:17 10° NW visible
23 Oct 4.8 06:03:07 10° N 06:09:21 58° E 06:15:27 10° SSE visible
23 Oct 4.8 19:27:47 10° SSW 19:33:54 55° W 19:40:08 10° N visible
24 Oct 6.9 04:44:42 10° NE 04:47:26 13° ENE 04:50:09 10° E visible
24 Oct 4.0 06:27:04 10° N 06:33:24 78° W 06:39:36 10° S visible
24 Oct 5.9 19:52:44 10° SW 19:58:08 30° WNW 20:03:38 10° NNW visible
25 Oct 6.2 05:06:52 10° NNE 05:11:54 25° ENE 05:16:52 10° SE visible
25 Oct 4.0 18:30:34 10° S 18:36:46 65° E 18:43:04 10° NNE visible
25 Oct 6.7 20:18:47 10° WSW 20:22:33 16° WNW 20:26:21 10° NW visible
26 Oct 5.2 05:30:11 10° N 05:36:12 45° E 05:42:05 10° SSE visible
26 Oct 4.4 18:54:31 10° SSW 19:00:47 70° W 19:07:09 10° N visible
27 Oct 4.1 05:53:59 10° N 06:00:19 83° E 06:06:31 10° S visible
27 Oct 5.5 19:19:09 10° SW 19:24:57 38° WNW 19:30:50 10° N visible
28 Oct 6.5 04:34:19 10° NNE 04:38:39 19° ENE 04:42:55 10° ESE visible
28 Oct 4.1 06:18:10 10° NNW 06:24:16 54° W 06:30:15 10° SSW visible
28 Oct 6.5 19:44:40 10° WSW 19:49:17 21° WNW 19:53:57 10° NNW visible
29 Oct 5.5 04:57:19 10° NNE 05:03:01 35° ENE 05:08:36 10° SE visible
29 Oct 4.1 18:21:22 10° S 18:27:41 88° W 18:34:06 10° N visible
29 Oct 7.1 20:12:31 10° W 20:13:49 11° WNW 20:15:07 10° NW visible
30 Oct 4.4 05:20:57 10° N 05:27:12 65° E 05:33:19 10° SSE visible
30 Oct 5.1 18:45:43 10° SSW 18:51:47 49° W 18:57:56 10° N visible
31 Oct 6.7 04:02:03 10° NE 04:05:22 15° ENE 04:08:39 10° ESE visible
31 Oct 3.9 05:44:59 10° NNW 05:51:13 69° W 05:57:19 10° S visible
31 Oct 6.2 19:10:50 10° SW 19:16:03 27° WNW 19:21:20 10° NNW visible
